Flag for China Weather past 2 weeks in Foochow, Fujian, China

Now
84 °F

Passing clouds.


Feels Like: 92 °F
Forecast: 72 / 91 °F
Wind: 1 mph from North

Location: Fuzhou Airport

Current Time: Aug 21, 2014 at 10:26:59 AM

Latest Report: Aug 21, 2014 at 10:00 AM


Visibility: 5 mi

Pressure: 29.86 "Hg

Humidity: 74%

Dew point: 75 °F

Location of FoochowLocation

Historic Weather in Foochow — Graph

°F

Foochow temperature yesterday

Maximum temperature yesterday: 86 °F (at 10:00 AM)
Minimum temperature yesterday: 73 °F (at 6:00 PM)
Average temperature yesterday: 80 °F

Past Weeks' High & Low Weather Summary

 TemperatureHumidityPressure
High93 °F (Aug 6, 12:00 PM)94% (Aug 7, 3:00 AM)29.86 "Hg (Aug 7, 3:00 AM)
Low73 °F (Aug 20, 6:00 PM)56% (Aug 6, 12:00 PM)29.53 "Hg (Aug 7, 2:00 PM)
Average84 °F82%29.68 "Hg
* Reported Aug 6 9:00 AM — Aug 21 9:00 AM, Foochow, Weather by CustomWeather, © 2014

Note: Actual official high and low records may vary slightly from our data, if they occured in-between our weather recording intervals... More about our weather records

Advertising

Foochow weather history for previous 24 hours

 ConditionsComfort  
Time TempWeatherWind HumidityBarometerVisibility
9:00 AM
Aug 21
82 °FPassing clouds.3 mph79%29.86 "Hg4 mi
8:00 AM81 °FClear.3 mph84%29.86 "Hg4 mi
7:00 AM79 °FFog.3 mph89%29.83 "Hg2 mi
6:00 AM77 °FFog.1 mph94%29.83 "Hg2 mi
5:00 AM77 °FPassing clouds.No wind89%29.80 "Hg4 mi
4:00 AM75 °FClear.1 mph94%29.80 "Hg4 mi
3:00 AM77 °FClear.1 mph89%29.80 "Hg5 mi
2:00 AM77 °FPassing clouds.3 mph94%29.80 "HgN/A
1:00 AM77 °FPassing clouds.3 mph94%29.83 "HgN/A
12:00 AM77 °FPassing clouds.1 mph94%29.83 "HgN/A
11:00 PM
Aug 20
77 °FClear.1 mph94%29.86 "Hg10 mi
10:00 PM77 °FClear.No wind94%29.83 "Hg10 mi
9:00 PM77 °FPassing clouds.3 mph89%29.86 "HgN/A
8:00 PM77 °FPassing clouds.3 mph89%29.83 "HgN/A
7:00 PM75 °FPassing clouds.3 mph94%29.80 "HgN/A
6:00 PM73 °FSprinkles. Scattered clouds.1 mph94%29.80 "HgN/A
5:00 PM75 °FThunderstorms. Broken clouds.6 mph89%29.80 "Hg1 mi
4:00 PM82 °FPassing clouds.13 mph79%29.77 "HgN/A
3:00 PM79 °FThunderstorms. Broken clouds.13 mph89%29.74 "Hg3 mi
2:00 PM86 °FSunny.13 mph70%29.77 "Hg10 mi
1:00 PM84 °FPassing clouds.17 mph70%29.77 "HgN/A
12:00 PM86 °FPassing clouds.13 mph70%29.80 "HgN/A
11:00 AM86 °FPartly sunny.13 mph70%29.80 "HgN/A
10:00 AM86 °FPassing clouds.10 mph70%29.80 "HgN/A
Weather by CustomWeather, © 2014

See weather overviewHow to use our weather pages